AEE576 LGTS-LGSA

Flight info

Callsign AEE576
Flight time 0h 56m
Altitude 31000
Route LEKPO UL617 SKP UM749 ATV UP169 MANOK UL612 RUSOS
Aircraft A321/M-SDE3FGHIRWY/LB1

Departure

Time 2026-05-08 17:32
Airport Thessaloniki Macedonia International Airport (LGTS)

Arrival

Time 2026-05-08 18:29
Airport Chania International Airport (LGSA)
Time Latitude Longitude Altitude Speed Heading
2026-05-08 16:45 40.52122 22.98264 17 ft 0 kts 15°
2026-05-08 17:22 40.52110 22.98260 18 ft 4 kts 15°
2026-05-08 17:22 40.52087 22.98251 19 ft 4 kts 34°
2026-05-08 17:22 40.52076 22.98228 20 ft 4 kts 96°
2026-05-08 17:23 40.52079 22.98204 20 ft 1 kts 104°
2026-05-08 17:23 40.52080 22.98200 20 ft 0 kts 104°
2026-05-08 17:28 40.52079 22.98203 16 ft 1 kts 105°
2026-05-08 17:28 40.52072 22.98242 17 ft 9 kts 104°
2026-05-08 17:29 40.52048 22.98373 18 ft 17 kts 103°
2026-05-08 17:29 40.52020 22.98526 17 ft 17 kts 104°
2026-05-08 17:29 40.51987 22.98663 20 ft 12 kts 134°
2026-05-08 17:29 40.51902 22.98661 18 ft 13 kts 192°
2026-05-08 17:30 40.51836 22.98708 18 ft 12 kts 108°
2026-05-08 17:30 40.51795 22.98798 18 ft 11 kts 159°
2026-05-08 17:30 40.51722 22.98768 20 ft 14 kts 226°
2026-05-08 17:30 40.51684 22.98626 18 ft 12 kts 272°
2026-05-08 17:31 40.51686 22.98612 18 ft 1 kts 281°
2026-05-08 17:31 40.51686 22.98609 18 ft 0 kts 281°
2026-05-08 17:31 40.51716 22.98443 17 ft 54 kts 284°
2026-05-08 17:31 40.51864 22.97660 16 ft 121 kts 284°
2026-05-08 17:32 40.52112 22.96342 31 ft 171 kts 284°
2026-05-08 17:32 40.52417 22.94827 695 ft 170 kts 287°
2026-05-08 17:32 40.52749 22.93327 1411 ft 172 kts 285°
2026-05-08 17:32 40.53095 22.91791 1913 ft 184 kts 285°
2026-05-08 17:33 40.53488 22.90083 2203 ft 204 kts 286°
2026-05-08 17:33 40.53901 22.88244 2589 ft 217 kts 284°
2026-05-08 17:33 40.54322 22.86249 2788 ft 237 kts 283°
2026-05-08 17:33 40.54779 22.84033 2974 ft 263 kts 283°
2026-05-08 17:34 40.55273 22.81679 3570 ft 270 kts 283°
2026-05-08 17:34 40.55593 22.79264 4336 ft 266 kts 262°
2026-05-08 17:34 40.54959 22.77047 5092 ft 263 kts 233°
2026-05-08 17:34 40.53628 22.75402 5815 ft 264 kts 212°
2026-05-08 17:35 40.51929 22.74599 6558 ft 267 kts 189°
2026-05-08 17:35 40.50039 22.74851 7236 ft 277 kts 163°
2026-05-08 17:35 40.48307 22.75936 7892 ft 281 kts 158°
2026-05-08 17:35 40.46557 22.77119 8551 ft 284 kts 158°
2026-05-08 17:36 40.44789 22.78316 9196 ft 288 kts 159°
2026-05-08 17:36 40.42994 22.79526 9808 ft 293 kts 159°
2026-05-08 17:36 40.41161 22.80755 10293 ft 302 kts 160°
2026-05-08 17:36 40.39221 22.82044 10418 ft 323 kts 159°
2026-05-08 17:37 40.37151 22.83416 10544 ft 343 kts 159°
2026-05-08 17:37 40.34966 22.84870 10659 ft 362 kts 159°
2026-05-08 17:37 40.32665 22.86405 10792 ft 379 kts 158°
2026-05-08 17:37 40.30273 22.88006 10972 ft 392 kts 158°
2026-05-08 17:38 40.27815 22.89652 11378 ft 398 kts 158°
2026-05-08 17:38 40.25337 22.91318 11827 ft 403 kts 158°
2026-05-08 17:38 40.22833 22.93001 12308 ft 406 kts 158°
2026-05-08 17:38 40.20304 22.94692 12800 ft 410 kts 158°
2026-05-08 17:39 40.17748 22.96390 13281 ft 413 kts 157°
2026-05-08 17:39 40.15176 22.98101 13741 ft 417 kts 157°
2026-05-08 17:39 40.12580 22.99828 14175 ft 420 kts 157°
2026-05-08 17:39 40.09962 23.01567 14597 ft 423 kts 156°
2026-05-08 17:40 40.07323 23.03319 15034 ft 426 kts 156°
2026-05-08 17:40 40.04672 23.05076 15460 ft 429 kts 156°
2026-05-08 17:40 40.02000 23.06843 15866 ft 432 kts 156°
2026-05-08 17:40 39.99314 23.08618 16273 ft 434 kts 156°
2026-05-08 17:41 39.96604 23.10406 16681 ft 437 kts 156°
2026-05-08 17:41 39.93924 23.12174 17099 ft 439 kts 156°
2026-05-08 17:41 39.91185 23.13981 17507 ft 442 kts 156°
2026-05-08 17:41 39.88426 23.15799 17912 ft 445 kts 156°
2026-05-08 17:42 39.85656 23.17621 18308 ft 448 kts 156°
2026-05-08 17:42 39.82864 23.19455 18652 ft 450 kts 156°
2026-05-08 17:42 39.80064 23.21291 18992 ft 452 kts 157°
2026-05-08 17:42 39.77246 23.23134 19332 ft 455 kts 157°
2026-05-08 17:43 39.74409 23.24991 19671 ft 457 kts 157°
2026-05-08 17:43 39.71560 23.26854 20014 ft 460 kts 157°
2026-05-08 17:43 39.68695 23.28728 20350 ft 462 kts 156°
2026-05-08 17:43 39.65821 23.30610 20689 ft 464 kts 156°
2026-05-08 17:44 39.63913 23.31857 20915 ft 465 kts 156°
2026-05-08 17:44 39.61005 23.33754 21250 ft 468 kts 156°
2026-05-08 17:44 39.58092 23.35654 21586 ft 470 kts 156°
2026-05-08 17:44 39.55167 23.37564 21901 ft 472 kts 157°
2026-05-08 17:45 39.52226 23.39482 22198 ft 475 kts 157°
2026-05-08 17:45 39.49267 23.41410 22510 ft 477 kts 157°
2026-05-08 17:45 39.46296 23.43346 22810 ft 479 kts 158°
2026-05-08 17:45 39.43314 23.45287 23142 ft 481 kts 158°
2026-05-08 17:46 39.40322 23.47228 23453 ft 482 kts 159°
2026-05-08 17:46 39.37311 23.49173 23733 ft 484 kts 159°
2026-05-08 17:46 39.34286 23.51125 23973 ft 486 kts 159°
2026-05-08 17:46 39.31299 23.53053 24176 ft 488 kts 159°
2026-05-08 17:47 39.28253 23.55019 24385 ft 490 kts 160°
2026-05-08 17:47 39.25203 23.56990 24605 ft 491 kts 160°
2026-05-08 17:47 39.22144 23.58966 24813 ft 492 kts 160°
2026-05-08 17:47 39.19029 23.60740 25002 ft 487 kts 167°
2026-05-08 17:48 39.15782 23.61867 25203 ft 479 kts 176°
2026-05-08 17:48 39.12498 23.62425 25416 ft 475 kts 180°
2026-05-08 17:48 39.09223 23.62924 25682 ft 474 kts 180°
2026-05-08 17:48 39.05952 23.63418 25917 ft 473 kts 181°
2026-05-08 17:49 39.02693 23.63904 26192 ft 471 kts 182°
2026-05-08 17:49 38.99426 23.64377 26464 ft 470 kts 182°
2026-05-08 17:49 38.96170 23.64846 26736 ft 470 kts 182°
2026-05-08 17:49 38.92924 23.65313 27007 ft 469 kts 182°
2026-05-08 17:50 38.89681 23.65787 27284 ft 468 kts 182°
2026-05-08 17:50 38.86447 23.66268 27489 ft 468 kts 182°
2026-05-08 17:50 38.83201 23.66748 27691 ft 469 kts 182°
2026-05-08 17:50 38.79951 23.67225 27922 ft 470 kts 182°
2026-05-08 17:51 38.76698 23.67703 28179 ft 469 kts 182°
2026-05-08 17:51 38.73452 23.68181 28433 ft 469 kts 182°
2026-05-08 17:51 38.70208 23.68660 28717 ft 469 kts 182°
2026-05-08 17:51 38.66973 23.69131 28923 ft 467 kts 182°
2026-05-08 17:52 38.63736 23.69600 29107 ft 468 kts 182°
2026-05-08 17:52 38.60499 23.70069 29273 ft 470 kts 182°
2026-05-08 17:52 38.54034 23.71008 29766 ft 470 kts 182°
2026-05-08 17:53 38.50783 23.71487 30035 ft 470 kts 182°
2026-05-08 17:53 38.47531 23.71971 30263 ft 470 kts 182°
2026-05-08 17:53 38.44279 23.72453 30474 ft 470 kts 182°
2026-05-08 17:53 38.41031 23.72932 30678 ft 470 kts 182°
2026-05-08 17:54 38.37779 23.73402 30843 ft 471 kts 182°
2026-05-08 17:54 38.34517 23.73870 31002 ft 472 kts 182°
2026-05-08 17:54 38.31245 23.74334 31049 ft 473 kts 182°
2026-05-08 17:55 38.24704 23.75272 31059 ft 473 kts 182°
2026-05-08 17:55 38.18170 23.76213 31047 ft 472 kts 182°
2026-05-08 17:56 38.11650 23.77160 31045 ft 472 kts 182°
2026-05-08 17:56 38.05124 23.78117 31059 ft 472 kts 182°
2026-05-08 17:57 37.98595 23.79048 31063 ft 472 kts 182°
2026-05-08 17:57 37.92054 23.79975 31058 ft 473 kts 181°
2026-05-08 17:58 37.85506 23.80954 31060 ft 474 kts 181°
2026-05-08 17:58 37.78948 23.82024 31069 ft 475 kts 180°
2026-05-08 17:59 37.72388 23.83122 31047 ft 476 kts 180°
2026-05-08 17:59 37.65861 23.84269 31057 ft 482 kts 173°
2026-05-08 18:00 37.59365 23.86612 31059 ft 486 kts 171°
2026-05-08 18:00 37.49622 23.90204 31056 ft 486 kts 171°
2026-05-08 18:01 37.43115 23.92583 31073 ft 486 kts 171°
2026-05-08 18:01 37.36621 23.94957 31088 ft 486 kts 171°
2026-05-08 18:02 37.31224 23.96934 31096 ft 486 kts 171°
2026-05-08 18:02 37.23639 23.99707 31088 ft 486 kts 171°
2026-05-08 18:03 37.17148 24.02071 31097 ft 485 kts 171°
2026-05-08 18:03 37.10664 24.04427 31099 ft 485 kts 171°
2026-05-08 18:04 37.04171 24.06777 31073 ft 485 kts 170°
2026-05-08 18:04 36.97727 24.09111 31079 ft 485 kts 170°
2026-05-08 18:05 36.91233 24.11459 31086 ft 486 kts 170°
2026-05-08 18:05 36.84731 24.13799 31092 ft 486 kts 170°
2026-05-08 18:06 36.78229 24.16133 31076 ft 486 kts 170°
2026-05-08 18:06 36.71717 24.18475 31083 ft 487 kts 169°
2026-05-08 18:07 36.65206 24.20817 31092 ft 487 kts 169°
2026-05-08 18:07 36.58692 24.23157 31098 ft 487 kts 169°
2026-05-08 18:08 36.52173 24.25492 31078 ft 488 kts 169°
2026-05-08 18:08 36.45650 24.27816 31084 ft 488 kts 169°
2026-05-08 18:09 36.39117 24.30140 30775 ft 488 kts 169°
2026-05-08 18:09 36.35844 24.31303 30526 ft 489 kts 169°
2026-05-08 18:09 36.32576 24.32460 29974 ft 489 kts 169°
2026-05-08 18:10 36.29282 24.33627 28707 ft 495 kts 169°
2026-05-08 18:10 36.25977 24.34789 27715 ft 493 kts 171°
2026-05-08 18:10 36.22614 24.35559 26514 ft 490 kts 179°
2026-05-08 18:10 36.19224 24.35690 25400 ft 485 kts 188°
2026-05-08 18:11 36.15941 24.35225 24379 ft 479 kts 195°
2026-05-08 18:11 36.12699 24.34331 23401 ft 475 kts 197°
2026-05-08 18:11 36.09491 24.33428 22670 ft 466 kts 197°
2026-05-08 18:11 36.06391 24.32571 22489 ft 447 kts 197°
2026-05-08 18:12 36.03406 24.31736 21894 ft 435 kts 197°
2026-05-08 18:12 36.00484 24.30873 20127 ft 432 kts 198°
2026-05-08 18:12 35.97566 24.29964 18325 ft 432 kts 198°
2026-05-08 18:12 35.94663 24.29035 16387 ft 430 kts 199°
2026-05-08 18:13 35.91799 24.28116 14751 ft 421 kts 199°
2026-05-08 18:13 35.88993 24.27227 13167 ft 410 kts 199°
2026-05-08 18:13 35.86250 24.26367 11995 ft 404 kts 199°
2026-05-08 18:13 35.83574 24.25535 11649 ft 388 kts 199°
2026-05-08 18:14 35.80997 24.24741 11356 ft 372 kts 199°
2026-05-08 18:14 35.78552 24.23993 11227 ft 352 kts 199°
2026-05-08 18:14 35.76280 24.23302 11066 ft 325 kts 200°
2026-05-08 18:14 35.74179 24.22665 10861 ft 300 kts 200°
2026-05-08 18:15 35.72189 24.22052 10504 ft 290 kts 201°
2026-05-08 18:15 35.70245 24.21442 10266 ft 286 kts 201°
2026-05-08 18:15 35.68323 24.20836 9964 ft 284 kts 201°
2026-05-08 18:15 35.66420 24.20239 9569 ft 281 kts 201°
2026-05-08 18:16 35.64527 24.19647 9144 ft 280 kts 200°
2026-05-08 18:16 35.62642 24.19061 8732 ft 279 kts 200°
2026-05-08 18:16 35.60763 24.18479 8325 ft 278 kts 200°
2026-05-08 18:16 35.58893 24.17901 7939 ft 277 kts 200°
2026-05-08 18:17 35.57029 24.17323 7546 ft 275 kts 199°
2026-05-08 18:17 35.55206 24.16655 7231 ft 267 kts 211°
2026-05-08 18:17 35.53766 24.15378 7110 ft 248 kts 232°
2026-05-08 18:17 35.52890 24.13656 6992 ft 232 kts 252°
2026-05-08 18:18 35.52595 24.11778 6870 ft 219 kts 271°
2026-05-08 18:18 35.52712 24.09966 6750 ft 207 kts 275°
2026-05-08 18:18 35.52842 24.08249 6630 ft 196 kts 275°
2026-05-08 18:18 35.52961 24.06626 6506 ft 185 kts 274°
2026-05-08 18:19 35.53072 24.05085 6311 ft 179 kts 274°
2026-05-08 18:19 35.53182 24.03572 6071 ft 177 kts 274°
2026-05-08 18:19 35.53290 24.02061 6011 ft 178 kts 274°
2026-05-08 18:19 35.53398 24.00537 6016 ft 180 kts 274°
2026-05-08 18:20 35.53506 23.99033 5968 ft 177 kts 274°
2026-05-08 18:20 35.53615 23.97524 5804 ft 179 kts 274°
2026-05-08 18:20 35.53726 23.95995 5605 ft 180 kts 274°
2026-05-08 18:20 35.53837 23.94467 5379 ft 180 kts 274°
2026-05-08 18:21 35.53952 23.92933 5143 ft 181 kts 274°
2026-05-08 18:21 35.54073 23.91397 4960 ft 180 kts 274°
2026-05-08 18:21 35.54209 23.89872 4967 ft 180 kts 275°
2026-05-08 18:21 35.54668 23.88440 4893 ft 187 kts 308°
2026-05-08 18:22 35.55807 23.87638 4796 ft 196 kts 340°
2026-05-08 18:22 35.57118 23.87168 4758 ft 195 kts 333°
2026-05-08 18:22 35.58378 23.86534 4514 ft 195 kts 336°
2026-05-08 18:22 35.59729 23.86278 4374 ft 202 kts
2026-05-08 18:23 35.60975 23.87016 4261 ft 209 kts 46°
2026-05-08 18:23 35.61743 23.88535 4229 ft 212 kts 60°
2026-05-08 18:23 35.62542 23.90054 3979 ft 209 kts 56°
2026-05-08 18:23 35.62995 23.91699 3910 ft 204 kts 98°
2026-05-08 18:24 35.62477 23.93286 4038 ft 203 kts 123°
2026-05-08 18:24 35.61779 23.94791 3874 ft 202 kts 124°
2026-05-08 18:24 35.61076 23.96267 3737 ft 199 kts 125°
2026-05-08 18:24 35.60374 23.97725 3442 ft 194 kts 124°
2026-05-08 18:25 35.59756 23.99125 3102 ft 179 kts 121°
2026-05-08 18:25 35.59231 24.00443 2823 ft 165 kts 120°
2026-05-08 18:25 35.58705 24.01646 2628 ft 157 kts 123°
2026-05-08 18:25 35.58162 24.02779 2379 ft 152 kts 125°
2026-05-08 18:26 35.57610 24.03885 2181 ft 151 kts 123°
2026-05-08 18:26 35.57112 24.05022 2006 ft 151 kts 120°
2026-05-08 18:26 35.56644 24.06167 1790 ft 149 kts 121°
2026-05-08 18:26 35.56156 24.07284 1546 ft 148 kts 122°
2026-05-08 18:27 35.55658 24.08361 1387 ft 147 kts 124°
2026-05-08 18:27 35.55482 24.08725 1320 ft 147 kts 124°
2026-05-08 18:27 35.54668 24.10551 967 ft 143 kts 117°
2026-05-08 18:27 35.54258 24.11655 757 ft 145 kts 115°
2026-05-08 18:28 35.53879 24.12813 580 ft 147 kts 112°
2026-05-08 18:28 35.53499 24.13969 438 ft 139 kts 112°
2026-05-08 18:28 35.53192 24.14918 459 ft 96 kts 111°
2026-05-08 18:28 35.52989 24.15539 467 ft 59 kts 112°
2026-05-08 18:29 35.52918 24.15759 470 ft 33 kts 111°
2026-05-08 18:29 35.52899 24.15926 472 ft 12 kts 33°
2026-05-08 18:29 35.52974 24.15969 476 ft 1 kts 20°
2026-05-08 18:31 35.52975 24.15969 476 ft 0 kts 20°
2026-05-08 18:31 35.52994 24.15976 476 ft 8 kts
2026-05-08 18:31 35.53049 24.15891 472 ft 19 kts 291°
2026-05-08 18:31 35.53088 24.15789 472 ft 0 kts 293°
2026-05-08 18:34 35.53107 24.15733 470 ft 18 kts 292°
2026-05-08 18:34 35.53167 24.15544 466 ft 26 kts 291°
2026-05-08 18:34 35.53236 24.15330 464 ft 28 kts 290°
2026-05-08 18:35 35.53260 24.15256 463 ft 1 kts 293°
2026-05-08 18:35 35.53266 24.15239 463 ft 4 kts 293°
2026-05-08 18:35 35.53280 24.15199 460 ft 7 kts 293°
2026-05-08 18:35 35.53303 24.15136 461 ft 10 kts 294°
2026-05-08 18:36 35.53335 24.15049 457 ft 13 kts 292°
2026-05-08 18:36 35.53362 24.14949 457 ft 15 kts 284°
2026-05-08 18:36 35.53405 24.14816 455 ft 18 kts 292°
2026-05-08 18:36 35.53457 24.14660 452 ft 22 kts 291°
2026-05-08 18:37 35.53516 24.14480 449 ft 24 kts 292°
2026-05-08 18:37 35.53583 24.14342 446 ft 14 kts 354°
2026-05-08 18:37 35.53684 24.14334 436 ft 17 kts 317°
2026-05-08 18:37 35.53736 24.14193 441 ft 19 kts 291°
2026-05-08 18:38 35.53785 24.14042 431 ft 11 kts 292°
2026-05-08 18:38 35.53801 24.13991 431 ft 5 kts 290°
2026-05-08 18:38 35.53805 24.13982 435 ft 0 kts 302°
2026-05-08 18:38 35.53817 24.13979 439 ft 0 kts 354°
2026-05-08 18:39 35.53823 24.13981 439 ft 3 kts 13°
2026-05-08 18:39 35.53828 24.13985 430 ft 0 kts 30°
2026-05-08 18:41 35.55980 24.07679 1476 ft 147 kts 123°
2026-05-08 18:41 35.56684 24.06074 1801 ft 149 kts 121°
2026-05-08 18:42 35.56194 24.07197 1558 ft 148 kts 122°
2026-05-08 18:42 35.55691 24.08292 1396 ft 147 kts 124°
2026-05-08 18:42 35.55174 24.09376 1206 ft 146 kts 122°
2026-05-08 18:42 35.54704 24.10457 987 ft 143 kts 118°
2026-05-08 18:43 35.54285 24.11581 767 ft 145 kts 114°
2026-05-08 18:43 35.53904 24.12739 591 ft 147 kts 112°